Address 0x741310c141493577db07f986eab5c3abfbb97779

 
Txn Hash
Block
From
To
Value [Txn Fee]
0xa0811ce45549412d55c2d4410f7f0975793a3c2d00b896f3ecdb9588e113c3af83258032021-06-15 18:53:206 days 10 hrs ago0x741310c141493577db07f986eab5c3abfbb97779OUT Dego.Finance: DEGO Token0 BNB0.00022191
0xe65d064f96b974742af3242f3392a8746301111ccf5cfdf1496663de99ec356e83240342021-06-15 17:24:176 days 12 hrs ago0x741310c141493577db07f986eab5c3abfbb97779OUT PancakeSwap: Router v20 BNB0.001031645
0x54cd108a092a4e21f93b46ba534206352590ed56c50033298e45412c3e3218bd83235682021-06-15 17:00:596 days 12 hrs ago0x741310c141493577db07f986eab5c3abfbb97779OUT PancakeSwap: Router v20 BNB0.001023135
0xf0fcd1bdf122316c6c577d9af48dfd24aaa76af72cb59da01a8865045c95d42183233972021-06-15 16:52:266 days 12 hrs ago0x741310c141493577db07f986eab5c3abfbb97779OUT PancakeSwap: Router v20 BNB0.001098135
0x73d1fd3d95fa784ff22ccfa0e178b1bc53c89acf5d3f9774abb32a036b8c250683224142021-06-15 16:03:176 days 13 hrs ago0x741310c141493577db07f986eab5c3abfbb97779OUT PancakeSwap: Router v20 BNB0.000895545
0x40bdad7718e7427d9ceb5f4f200c9291620e4a97058c0204875a35c3d6eac7d383220142021-06-15 15:43:126 days 13 hrs ago0x741310c141493577db07f986eab5c3abfbb97779OUT PancakeSwap: Router v20 BNB0.000895585
0x233f615152b836b2942755fe8004bf7b320f51c412e7e9cd07bb405d099eb7d283200762021-06-15 14:03:536 days 15 hrs ago0x741310c141493577db07f986eab5c3abfbb97779OUT Binance: BUSD Stablecoin0 BNB0.000310842
0x764ff60f74b62aa3fa3640da87827ccbaad8d9e5f30dcfa100bda0dce584bf0583186042021-06-15 12:48:356 days 16 hrs ago0x741310c141493577db07f986eab5c3abfbb97779OUT 0xcde540d7eafe93ac5fe6233bee57e1270d3e330f0 BNB0.00085953
0x540ba6eb89cd42dd9e91ee269c11b91686d2c8bbb15d24cb718a9a4f5ce5d93a83081892021-06-15 3:57:397 days 1 hr ago0x741310c141493577db07f986eab5c3abfbb97779OUT 0xcde540d7eafe93ac5fe6233bee57e1270d3e330f0 BNB0.00085784
0xa7048211725d1d3a73134508afd611cb01ae21b4ebb27da0cbc6909d5c0b3ce883064762021-06-15 2:31:597 days 3 hrs ago0x741310c141493577db07f986eab5c3abfbb97779OUT 0xcde540d7eafe93ac5fe6233bee57e1270d3e330f0 BNB0.00085953
0x1dfeac353efb2ad8d542b63fe4cb959bb45052d416790d7ff32637b098ea3d8682903732021-06-14 12:57:027 days 16 hrs ago0x741310c141493577db07f986eab5c3abfbb97779OUT 0xcde540d7eafe93ac5fe6233bee57e1270d3e330f0 BNB0.00085784
0x6bda78f830b6f188b11ee5030e9ce3bcbddfb06e691c06c484c9c99e53eb44c882879642021-06-14 10:55:047 days 18 hrs ago0x741310c141493577db07f986eab5c3abfbb97779OUT 0xcde540d7eafe93ac5fe6233bee57e1270d3e330f0 BNB0.00085953
0x81553a7a5c468b180c33d7cb14dfb90dae24ac75b81737ba8c09a2665f56f11081072702021-06-08 3:29:0814 days 2 hrs ago0x741310c141493577db07f986eab5c3abfbb97779OUT 0xcde540d7eafe93ac5fe6233bee57e1270d3e330f0 BNB0.0007227
0xaad441898aca806ab4fa21ce0e82d61ec256a2e6bdd1ddd323ac26a95555577780904652021-06-07 13:26:2814 days 16 hrs ago0x741310c141493577db07f986eab5c3abfbb97779OUT 0xcde540d7eafe93ac5fe6233bee57e1270d3e330f0 BNB0.00085766
0x779e8af94a2b5e3ff0b2fdea5bf99eae4fb7bb4e171b3737f75e0e1a7d798a8c80904352021-06-07 13:24:5814 days 16 hrs ago0x741310c141493577db07f986eab5c3abfbb97779OUT 0xcde540d7eafe93ac5fe6233bee57e1270d3e330f0 BNB0.0007375
0x2326510084b399f4356df184a826ad4879002b61c5d596abb3a0a0ce6f587aae80904192021-06-07 13:24:1014 days 16 hrs ago0x741310c141493577db07f986eab5c3abfbb97779OUT 0xcde540d7eafe93ac5fe6233bee57e1270d3e330f0 BNB0.00079758
0xdc09d1e3d6f4ecf1c12a414f6a804f9b98ccac723277f4cd0c907a243f9c8bf980904082021-06-07 13:23:3714 days 16 hrs ago0x741310c141493577db07f986eab5c3abfbb97779OUT 0xcde540d7eafe93ac5fe6233bee57e1270d3e330f0 BNB0.00017045
0x6c9a8a9728f12ea4791e099190134fdd78cb626c861697e40aa49f338391745f80881492021-06-07 11:30:3114 days 18 hrs ago0x741310c141493577db07f986eab5c3abfbb97779OUT 0xcde540d7eafe93ac5fe6233bee57e1270d3e330f0 BNB0.00079758
0xc4ac558d1643e3e91a779084de31732f0da69539b3a5aef3c17e3d3ccf1eb77e80881392021-06-07 11:30:0114 days 18 hrs ago0x741310c141493577db07f986eab5c3abfbb97779OUT 0xcde540d7eafe93ac5fe6233bee57e1270d3e330f0 BNB0.0007375
0x49d80fdc0f03c2d5fefb9c36229db1739e165f49064d434ea649f7008ca2d3ab80881172021-06-07 11:28:5514 days 18 hrs ago0x741310c141493577db07f986eab5c3abfbb97779OUT 0xcde540d7eafe93ac5fe6233bee57e1270d3e330f0 BNB0.00079758
0xaeeb3fea4ec7d98faa1103d36d1e16ed770aba9c5fa29a98cc2f174938782edc80880992021-06-07 11:28:0114 days 18 hrs ago0x741310c141493577db07f986eab5c3abfbb97779OUT 0xcde540d7eafe93ac5fe6233bee57e1270d3e330f0 BNB0.0007375
0x13de7ac5c7a5c93b16731cfa126ed5d0dec5f3e45290e737058b774f105f9cd980880692021-06-07 11:26:3114 days 18 hrs ago0x741310c141493577db07f986eab5c3abfbb97779OUT 0xcde540d7eafe93ac5fe6233bee57e1270d3e330f0 BNB0.0007375
0x410e6f071795ffeba56d25e63179bd626fcc9afc136594b0b888664991e44d4b80880582021-06-07 11:25:5814 days 18 hrs ago0x741310c141493577db07f986eab5c3abfbb97779OUT 0xcde540d7eafe93ac5fe6233bee57e1270d3e330f0 BNB0.0007375
0x2e97e2287885c9af7a7f76020c398d1701bc9b6c70122baffc254b320a1fb42680880282021-06-07 11:24:2814 days 18 hrs ago0x741310c141493577db07f986eab5c3abfbb97779OUT 0xcde540d7eafe93ac5fe6233bee57e1270d3e330f0 BNB0.00017045
0x19fe6b3672f75173d27d631f0f5e3cbd79be7187cb1fe9e537da4344fea9db2e80880062021-06-07 11:23:2214 days 18 hrs ago0x741310c141493577db07f986eab5c3abfbb97779OUT 0xcde540d7eafe93ac5fe6233bee57e1270d3e330f0 BNB0.00017045
[ Download CSV Export 
Latest 2 internal transactions
Parent Txn Hash Block From To Value
0x554445a27383dd7b7f0ff6f3765cdd840083035a1dc96eb3139078436e9a990080810822021-06-07 5:37:0115 days 1 min ago 0xcde540d7eafe93ac5fe6233bee57e1270d3e330f0x741310c141493577db07f986eab5c3abfbb977790.050016651512723577 BNB
0x5d182c223b2db75c99ffeab88e94f9cea61e873eab49d662a10811d4dfc681fb80234772021-06-05 5:31:2617 days 7 mins ago PancakeSwap: Router v20x741310c141493577db07f986eab5c3abfbb977790.036112148654953493 BNB
[ Download CSV Export 
Loading

Contract Name:
0 BNB

Compiler Version
0

Optimization Enabled:
0 BNB

Other Settings:
-NA-
Block Transaction Gas Used Reward
Age Block Fee Address BC Fee Address Voting Power Jailed Incoming
Block Uncle Number Difficulty Gas Used Reward
Loading
Loading
Make sure to use the "Vote Down" button for any spammy posts, and the "Vote Up" for interesting conversations.